Showing default

CALSPHERE 2, 902

Orbit data source: Space-Track

CALSPHERE 2, 902 is a payload satellite owned by NRL (US) in LEO that was launched on Tue, 06 Oct 1964 UTC via a THOR ABLESTAR launch vehicle from the Air Force Western Test Range (AFWTR). Payload-class satellites include a variety of spacecraft equipped with specific instruments for various scientific and technological missions. These include communications satellites like Starlink; space stations such as the ISS; scientific satellites like the Hubble; Earth observation satellites from companies like Planet Labs, Umbra, and HawkEye 360; GPS; miniature CubeSats for education and research; and military/defense satellites.

Loading next visibility...
Identifier
902, 1964-063E
Orbit
LEO
Country
Flag of USUS
Related business
Manufacturer
NRL
Mission
Operational spacecraft
Bus & Motor
NRL 14", Unknown motor
Mass
10 kg wet, 10 kg dry
Launch date (UTC)
1964-10-06 (61 years ago)
Launch vehicle
THOR ABLESTAR
Launch site
Air Force Western Test Range (AFWTR)
Object type
Payload
Rocket body
Debris
Shape & HBR
Unknown
Radar Cross Section
Small (<0.1 m²)

Expand to show TLE details & history
Last TLE update: 14 hours ago

TLE from 14 hours ago
0 CALSPHERE 2
1   902U 64063E   26037.57929197  .00000038  00000-0  44619-4 0  9996
2   902  90.2293  72.7161 0016782 243.7943 240.7034 13.52888907838604
Epoch: 2026-02-06T13:54Z
TLE epoch observation values (Epoch: 2026-02-06T13:54:10.826Z)
Latitude
55.76275°
Longitude
-92.20894°
Altitude
1,077.128 km
Speed
7.316 km/s
True Right ascension
16h 52m 12s
True Declination
55° 36' 34"
Sunlit
Object was in daylight at epoch
Visualization orbit readout
Latitude
Unknown
Longitude
Unknown
Altitude
Unknown
Speed
Unknown
Apparent Right ascension
Unknown
Apparent Declination
Unknown
Sunlit
N/A
Visualization observer readout
Local Sidereal Time
05:41:26
Azimuth
Unknown
Elevation
Unknown
Doppler factor
Unknown
Orbital elements
Apogee altitude
1,071.175 km
Perigee altitude
1,046.214 km
Semi-major axis
7,436.831 km
Eccentricity
0.00168
Inclination
90.2293°
RAAN
72.7161°
Arg. of periapsis
243.7943°
True anomaly
240.53586°
Mean anomaly
240.7034°
Eccentric anomaly
240.61961°
Mean motion
3.38424 °/min
Orbital period
106.38 mins
BSTAR
0.000044619
Loading maneuver chart data...
Computing Atmospheric mass density...
Loading historical data...
Loading historical data...
Loading historical data...
Loading historical data...
Loading historical data...
Loading historical data...
Loading historical data...

Documentation

Showing up to 5 results
|